User: anonymous   Login
Location: Auckland
(36.8670°S, 174.7670°E)
Time: 04:33:44
(UTC+13:00)
Language:

COSMOS 2428 - Orbit

View from above orbital plane
View from above orbital plane
View from above satellite
View from above satellite

Ground track
Ground track

The orbit data is extracted from the following two-line orbital elements,

1 31792U 07029A   19077.48723282 -.00000330  00000-0 -15270-3 0  9996
2 31792  70.9556 151.7851 0008492  22.3141 337.8347 14.12529589604348
Epoch (UTC): 18 March 2019 11:41:36
Eccentricity: 0.0008492
inclination: 70.9556°
perigee height: 844 km
apogee height: 857 km
right ascension of ascending node: 151.7851°
argument of perigee: 22.3141°
revolutions per day: 14.12529589
mean anomaly at epoch: 337.8347°
orbit number at epoch: 60434

The dashed part of the orbit path shows where the satellite is in the earth's shadow,  

DLR